PBO Station Position Time Series. Reference Frame : NAM14
Format Version,1.1.1
4-character ID,ONAB
Station name,Ona_Beach
Begin Date, 2008-08-22
End Date, 2023-05-11
Release Date, 2023-06-22
Reference position, 44.5145224571 North Latitude, -124.0745161355 East Longitude, 17.54652 meters elevation,
Date, North (mm), East (mm), Vertical (mm), North Std. Deviation (mm), East Std. Deviation (mm),              Vertical Std. Deviation (mm), Quality,
2008-08-22,0.00, 0.00, 0.00, 2.20, 1.53, 7.06, repro,
2008-08-23,-0.52, -1.17, 6.66, 2.18, 1.52, 7.00, repro,
2008-08-24,1.31, -0.80, 2.05, 2.23, 1.58, 7.30, repro,
2008-08-25,0.38, -0.22, 2.72, 2.23, 1.54, 7.20, repro,
2008-08-26,0.43, -0.44, 2.67, 2.20, 1.53, 7.07, repro,
2008-08-27,-1.03, 0.35, 3.37, 2.23, 1.56, 7.20, repro,
2008-08-28,-0.73, -0.34, -0.54, 2.30, 1.58, 7.23, repro,
2008-08-29,0.60, -0.01, -6.51, 2.20, 1.56, 7.10, repro,
2008-08-30,0.08, -0.40, 3.27, 2.25, 1.56, 7.19, repro,
2008-08-31,0.82, 0.87, 6.43, 2.25, 1.57, 7.24, repro,
2008-09-01,1.50, 1.02, -2.18, 2.23, 1.55, 7.13, repro,
2008-09-02,1.21, 0.11, -2.57, 2.21, 1.57, 7.20, repro,
2008-09-03,1.29, 0.38, -3.47, 2.19, 1.56, 7.09, repro,
2008-09-04,0.77, 1.21, -1.42, 2.38, 1.70, 7.82, repro,
2008-09-05,0.94, 0.33, -3.78, 2.23, 1.58, 7.26, repro,
2008-09-06,1.61, 0.18, 7.38, 2.23, 1.56, 7.21, repro,
2008-09-07,1.64, 2.40, 7.24, 2.22, 1.55, 7.11, repro,
2008-09-08,0.64, 0.04, -3.09, 2.18, 1.55, 7.04, repro,
2008-09-09,-0.53, 0.72, 11.49, 2.24, 1.55, 7.18, repro,
2008-09-10,1.11, 0.53, 5.13, 2.25, 1.60, 7.31, repro,
2008-09-11,0.35, 0.95, 4.45, 2.24, 1.57, 7.18, repro,
2008-09-12,-0.13, -0.14, 8.34, 2.24, 1.57, 7.21, repro,
2008-09-13,1.59, 1.73, -2.00, 2.21, 1.54, 7.08, repro,
2008-09-14,0.20, 0.80, 5.08, 2.18, 1.54, 7.03, repro,
2008-09-15,-0.03, 0.50, 3.25, 2.19, 1.54, 7.08, repro,
2008-09-16,1.57, 1.84, 2.54, 2.22, 1.57, 7.21, repro,
2008-09-17,1.05, 0.23, 2.37, 2.31, 1.59, 7.40, repro,
2008-09-18,0.83, 0.38, 5.58, 2.22, 1.54, 7.07, repro,
2008-09-19,1.74, 0.51, -1.38, 2.16, 1.52, 6.95, repro,
2008-09-20,2.10, 1.74, -1.93, 2.17, 1.52, 6.96, repro,
2008-09-21,1.48, 1.30, 4.98, 2.18, 1.52, 7.00, repro,
2008-09-22,1.10, 1.22, 7.59, 2.22, 1.52, 7.06, repro,
2008-09-24,-0.40, 0.44, -1.13, 2.25, 1.58, 7.26, repro,
2008-09-25,0.77, 1.12, 6.00, 2.24, 1.57, 7.18, repro,
2008-09-26,0.95, 1.61, 1.53, 2.18, 1.52, 7.00, repro,
2008-09-27,0.71, 1.17, 6.86, 2.25, 1.56, 7.20, repro,
2008-09-28,1.21, 1.68, 5.11, 2.20, 1.51, 6.93, repro,
2008-09-29,0.64, 0.42, 1.18, 2.20, 1.54, 7.04, repro,
2008-09-30,0.04, -0.18, 4.07, 2.18, 1.52, 6.97, repro,
2008-10-01,-0.13, 1.66, 0.95, 2.18, 1.53, 6.99, repro,
2008-10-02,1.54, 2.46, 13.11, 2.24, 1.57, 7.17, repro,
2008-10-03,0.23, -0.01, 11.24, 2.26, 1.56, 7.23, repro,
2008-10-04,1.19, -0.32, 11.20, 2.23, 1.55, 7.17, repro,
2008-10-05,1.70, 0.32, 5.10, 2.20, 1.53, 7.03, repro,
2008-10-06,0.52, 0.75, 2.62, 2.19, 1.53, 7.05, repro,
2008-10-07,0.52, 2.04, 2.48, 2.28, 1.57, 7.22, repro,
2008-10-08,-0.67, 0.88, 1.96, 2.25, 1.55, 7.16, repro,
2008-10-09,2.09, 2.49, -1.18, 2.16, 1.52, 6.97, repro,
2008-10-10,0.63, 0.79, -1.46, 2.15, 1.52, 6.97, repro,
2008-10-11,-0.15, 0.64, -1.92, 2.13, 1.50, 6.92, repro,
2008-10-12,1.26, 1.70, -10.69, 2.15, 1.53, 7.01, repro,
2008-10-13,-0.16, 2.44, 3.13, 2.15, 1.51, 6.96, repro,
2008-10-14,0.53, 0.98, -0.01, 2.17, 1.51, 6.98, repro,
2008-10-15,1.25, 2.25, 1.81, 2.20, 1.53, 7.07, repro,
2008-10-16,1.80, 0.05, -2.31, 2.22, 1.55, 7.18, repro,
2008-10-17,1.50, 0.55, -3.94, 2.16, 1.52, 6.99, repro,
2008-10-18,-0.52, 2.29, 0.41, 2.15, 1.52, 7.02, repro,
2008-10-19,-0.98, 2.82, 3.45, 2.15, 1.52, 6.99, repro,
2008-10-20,1.38, 2.02, 1.70, 2.17, 1.54, 7.08, repro,
2008-10-21,0.85, 3.91, -1.03, 2.13, 1.51, 6.93, repro,
2008-10-22,-0.69, 0.40, -4.23, 2.14, 1.51, 6.94, repro,
2008-10-23,0.43, 2.75, 5.81, 2.16, 1.51, 7.04, repro,
2008-10-24,0.12, -0.01, -0.58, 3.00, 2.34, 10.56, repro,
2008-10-25,0.06, 2.81, 8.83, 2.14, 1.51, 6.94, repro,
2008-10-26,1.68, 1.09, -3.65, 2.14, 1.50, 6.93, repro,
2008-10-27,0.64, 2.38, -4.60, 2.15, 1.50, 6.91, repro,
2008-10-28,0.80, 0.20, -3.18, 2.24, 1.53, 7.06, repro,
2008-10-29,0.80, 1.74, 2.80, 2.25, 1.55, 7.16, repro,
2008-10-30,-0.46, 1.74, 3.35, 2.15, 1.53, 6.97, repro,
2008-10-31,-1.17, 1.78, 2.13, 2.21, 1.57, 7.20, repro,
2008-11-01,2.43, 0.42, 1.85, 2.16, 1.53, 7.07, repro,
2008-11-02,-0.13, 1.88, -2.88, 2.17, 1.55, 7.09, repro,
2008-11-03,0.64, 1.10, 7.97, 2.18, 1.55, 7.08, repro,
2008-11-04,2.35, -0.59, 0.97, 2.21, 1.56, 7.14, repro,
2008-11-05,0.15, -0.20, 6.52, 2.15, 1.52, 6.94, repro,
2008-11-06,-0.02, 1.92, -2.53, 2.17, 1.55, 7.08, repro,
2008-11-07,0.58, 1.65, 5.84, 2.16, 1.53, 7.00, repro,
2008-11-08,2.30, 0.29, -4.35, 2.22, 1.59, 7.36, repro,
2008-11-09,0.71, 0.82, 7.33, 2.16, 1.57, 7.12, repro,
2008-11-10,1.85, 2.09, 6.08, 2.17, 1.58, 7.14, repro,
2008-11-11,0.90, 2.05, 4.06, 2.18, 1.55, 7.09, repro,
2008-11-12,0.17, 1.89, 3.45, 2.16, 1.52, 7.01, repro,
2008-11-13,-0.30, 0.22, 0.91, 2.14, 1.53, 7.02, repro,
2008-11-14,0.93, 1.71, -5.95, 2.17, 1.56, 7.14, repro,
2008-11-15,1.07, 2.36, -8.10, 2.18, 1.56, 7.13, repro,
2008-11-16,0.37, 1.27, -2.45, 2.18, 1.58, 7.22, repro,
2008-11-17,-0.09, 2.96, -6.93, 2.23, 1.61, 7.27, repro,
2008-11-18,0.42, 1.09, -4.80, 2.19, 1.62, 7.28, repro,
2008-11-19,0.72, 2.01, -12.31, 2.17, 1.58, 7.18, repro,
2008-11-20,1.58, 1.36, -6.28, 2.20, 1.61, 7.31, repro,
2008-11-21,1.36, 3.90, -3.88, 2.23, 1.62, 7.35, repro,
2008-11-22,2.29, 1.85, 7.34, 2.20, 1.64, 7.40, repro,
2008-11-23,1.87, 2.58, -5.88, 2.26, 1.60, 7.26, repro,
2008-11-24,1.14, 2.05, -5.81, 2.22, 1.62, 7.38, repro,
2008-11-25,1.13, 2.98, -7.41, 2.15, 1.55, 7.08, repro,
2008-11-26,1.18, 3.37, -2.29, 2.14, 1.54, 6.99, repro,
2008-11-27,1.59, 4.52, -6.67, 2.15, 1.55, 7.07, repro,
2008-11-28,0.54, 1.26, 5.25, 2.24, 1.65, 7.46, repro,
2008-11-29,0.27, 0.28, -12.15, 2.16, 1.59, 7.21, repro,
2008-11-30,0.28, 0.70, 7.44, 2.14, 1.54, 6.99, repro,
2008-12-01,1.09, 1.37, 2.24, 2.16, 1.54, 7.07, repro,
2008-12-02,1.23, 0.66, 6.79, 2.18, 1.59, 7.21, repro,
2008-12-03,2.11, 3.17, 3.62, 2.22, 1.57, 7.11, repro,
2008-12-04,1.12, 2.28, -5.33, 2.17, 1.56, 7.18, repro,
2008-12-05,2.57, 2.65, -4.82, 2.15, 1.57, 7.13, repro,
2008-12-06,1.58, 3.16, -1.52, 2.15, 1.60, 7.20, repro,
2008-12-07,2.69, 2.56, -3.61, 2.18, 1.59, 7.22, repro,
2008-12-08,2.89, 1.55, 2.29, 2.20, 1.58, 7.22, repro,
2008-12-09,3.83, 3.65, -10.13, 2.20, 1.57, 7.08, repro,
2008-12-10,3.97, 1.46, -13.06, 2.14, 1.52, 6.97, repro,
2008-12-11,2.08, 2.21, -2.32, 2.29, 1.62, 7.38, repro,
2008-12-12,1.51, 2.31, 1.55, 2.23, 1.59, 7.28, repro,
2008-12-13,2.57, -1.40, -1.13, 2.17, 1.56, 7.09, repro,
2008-12-14,4.46, 1.16, -8.23, 2.16, 1.51, 6.91, repro,
2008-12-15,4.67, 1.45, -3.09, 2.15, 1.52, 6.97, repro,
2008-12-16,2.57, 0.24, -10.30, 2.14, 1.52, 6.96, repro,
2008-12-17,2.57, 1.04, -5.04, 2.21, 1.53, 7.10, repro,
2008-12-18,2.12, 0.57, -2.91, 2.14, 1.51, 6.95, repro,
2008-12-19,1.14, 0.62, -4.20, 2.23, 1.55, 7.24, repro,
2008-12-20,2.64, 1.68, -3.35, 2.15, 1.51, 6.96, repro,
2008-12-21,2.43, -0.24, -3.00, 2.14, 1.51, 6.95, repro,
2008-12-22,1.33, 0.31, -0.34, 2.19, 1.55, 7.14, repro,
2008-12-23,0.33, 0.52, 2.66, 2.18, 1.54, 7.11, repro,
2008-12-24,0.95, -0.35, 6.89, 2.16, 1.51, 6.95, repro,
2008-12-25,2.13, 0.03, 6.51, 2.17, 1.52, 7.00, repro,
2008-12-26,0.56, 0.33, 4.04, 2.16, 1.52, 6.98, repro,
2008-12-27,0.82, 1.13, 2.71, 2.20, 1.58, 7.27, repro,
2008-12-28,0.77, -0.15, -4.18, 2.18, 1.54, 7.08, repro,
2008-12-29,-0.57, 0.34, -7.02, 2.18, 1.57, 7.19, repro,
2008-12-30,2.24, 3.69, -10.14, 2.16, 1.52, 7.00, repro,
2008-12-31,1.58, 3.88, -0.90, 2.13, 1.52, 6.97, repro,
2009-01-01,1.69, 2.43, 1.60, 2.15, 1.51, 6.98, repro,
2009-01-02,0.26, 1.66, -2.12, 2.15, 1.52, 7.01, repro,
2009-01-03,1.35, 3.59, -0.58, 2.16, 1.51, 6.96, repro,
2009-01-04,0.36, 3.32, -4.64, 2.17, 1.52, 6.96, repro,
2009-01-05,1.88, 3.47, 4.06, 2.15, 1.52, 6.98, repro,
2009-01-06,1.53, 2.97, -3.18, 2.16, 1.52, 7.02, repro,
2009-01-07,0.86, 3.29, 2.20, 2.14, 1.52, 6.97, repro,
2009-01-08,1.95, 2.69, -1.77, 2.18, 1.55, 7.10, repro,
2009-01-09,1.20, 5.24, -7.07, 2.19, 1.55, 7.13, repro,
2009-01-10,1.36, 5.80, -15.58, 2.15, 1.52, 6.99, repro,
2009-01-11,1.70, 5.46, -10.45, 2.14, 1.52, 7.01, repro,
2009-01-12,0.76, 4.21, -13.20, 2.13, 1.51, 6.93, repro,
2009-01-13,0.73, 2.84, -13.78, 2.13, 1.52, 6.96, repro,
2009-01-14,-0.21, 4.70, -9.34, 2.13, 1.51, 6.91, repro,
2009-01-15,0.07, 4.27, -15.01, 2.13, 1.52, 6.97, repro,
2009-01-16,2.54, 3.60, -9.53, 2.14, 1.52, 6.99, repro,
2009-01-17,1.62, 3.54, -13.19, 2.12, 1.51, 6.93, repro,
2009-01-18,2.20, 4.34, -8.58, 2.13, 1.51, 6.93, repro,
2009-01-19,0.59, 4.47, -5.54, 2.11, 1.51, 6.91, repro,
2009-01-20,0.46, 4.46, -7.89, 2.12, 1.51, 6.92, repro,
2009-01-21,-0.13, 3.91, -0.81, 2.14, 1.52, 7.00, repro,
2009-01-22,1.09, 2.22, -3.27, 2.13, 1.52, 7.01, repro,
2009-01-23,-0.50, 1.90, -5.59, 2.46, 1.75, 8.15, repro,
2009-01-26,3.01, 5.20, -10.41, 3.45, 2.67, 11.48, repro,
2009-01-27,0.56, 5.74, -4.05, 2.14, 1.53, 7.05, repro,
2009-01-28,-0.21, 2.55, -9.00, 2.13, 1.52, 6.97, repro,
2009-01-29,-0.04, 4.63, -8.25, 2.12, 1.53, 6.99, repro,
2009-01-30,-0.12, 3.09, -7.61, 2.10, 1.51, 6.90, repro,
2009-01-31,0.66, 4.48, -5.77, 2.11, 1.52, 6.94, repro,
2009-02-01,-0.25, 5.23, -4.77, 2.13, 1.54, 7.02, repro,
2009-02-02,0.89, 4.42, -11.30, 2.13, 1.53, 7.02, repro,
2009-02-03,0.96, 3.92, -12.60, 2.12, 1.54, 7.00, repro,
2009-02-04,-0.82, 5.16, -9.45, 2.11, 1.52, 6.93, repro,
2009-02-05,1.35, 3.76, -7.83, 2.15, 1.56, 7.07, repro,
2009-02-06,0.10, 1.52, 0.13, 2.13, 1.53, 6.99, repro,
2009-02-07,-1.59, 1.59, -5.37, 2.12, 1.53, 6.96, repro,
2009-02-08,-0.58, 1.78, -3.63, 2.12, 1.54, 7.01, repro,
2009-02-09,-0.87, 1.71, 7.78, 2.14, 1.56, 7.05, repro,
2009-02-10,0.07, 3.87, -2.54, 2.11, 1.52, 6.91, repro,
2009-02-11,-0.44, 2.10, 1.44, 2.14, 1.55, 7.02, repro,
2009-02-12,0.71, 2.11, -2.50, 2.16, 1.55, 7.07, repro,
2009-02-13,-0.20, 2.03, -4.75, 2.12, 1.53, 6.94, repro,
2009-02-14,0.94, 3.68, -2.84, 2.13, 1.52, 6.94, repro,
2009-02-15,-0.13, 3.02, 6.01, 2.13, 1.55, 7.07, repro,
2009-02-16,0.09, 3.50, 6.52, 2.10, 1.50, 6.87, repro,
2009-02-17,0.29, 4.30, 3.65, 2.14, 1.52, 6.94, repro,
2009-02-18,0.73, 3.50, -7.89, 2.12, 1.53, 6.97, repro,
2009-02-19,-0.68, 3.94, -5.45, 2.15, 1.56, 7.18, repro,
2009-02-20,-1.02, 3.53, -6.07, 2.12, 1.53, 7.00, repro,
2009-02-21,-0.65, 4.11, -4.60, 2.13, 1.54, 7.08, repro,
2009-02-22,0.02, 1.31, 2.00, 2.11, 1.52, 6.93, repro,
2009-02-23,-0.65, 3.65, -0.51, 2.16, 1.55, 7.13, repro,
2009-02-24,0.70, 3.52, -4.69, 2.24, 1.66, 7.38, repro,
2009-02-25,-1.36, 1.65, -9.45, 195.14, 171.58, 328.84, repro,
2009-02-26,0.15, 2.40, -0.40, 2.13, 1.56, 7.07, repro,
2009-02-27,0.46, 5.30, -2.14, 2.16, 1.58, 7.20, repro,
2009-02-28,1.76, 4.77, -8.10, 2.13, 1.57, 7.15, repro,
2009-03-01,-0.05, 5.02, 0.83, 2.13, 1.58, 7.19, repro,
2009-03-02,2.41, 2.51, -5.41, 2.12, 1.54, 7.05, repro,
2009-03-03,-0.82, 4.04, 0.35, 2.18, 1.61, 7.28, repro,
2009-03-04,0.08, 3.35, 2.60, 2.11, 1.52, 6.97, repro,
2009-03-05,1.28, 2.64, 2.79, 2.10, 1.54, 6.97, repro,
2009-03-06,1.07, 4.15, 0.34, 2.13, 1.60, 7.17, repro,
2009-03-07,1.48, 4.92, -6.71, 2.09, 1.54, 6.97, repro,
2009-03-08,1.30, 4.62, -5.10, 2.12, 1.55, 7.04, repro,
2009-03-09,3.49, 5.57, -2.53, 2.14, 1.56, 7.15, repro,
2009-03-10,-0.07, 3.93, -2.56, 2.11, 1.53, 6.99, repro,
2009-03-11,1.54, 4.37, -1.12, 2.10, 1.53, 6.91, repro,
2009-03-12,0.42, 3.48, -10.58, 2.11, 1.56, 7.04, repro,
2009-03-13,0.53, 4.11, -6.99, 2.12, 1.57, 7.14, repro,
2009-03-14,0.75, 3.59, -1.31, 2.11, 1.53, 6.96, repro,
2009-03-15,0.98, 2.57, 5.18, 2.11, 1.53, 6.93, repro,
2009-03-16,-0.26, 2.64, -0.34, 2.13, 1.55, 7.02, repro,
2009-03-17,1.14, 2.91, 2.95, 2.10, 1.53, 6.94, repro,
2009-03-18,1.99, 2.00, -12.09, 2.12, 1.54, 6.99, repro,
2009-03-19,0.02, 4.26, -4.16, 2.11, 1.53, 6.93, repro,
2009-03-20,-0.54, 4.00, 3.04, 2.11, 1.52, 6.88, repro,
2009-03-21,0.96, 2.25, -1.69, 2.10, 1.52, 6.85, repro,
2009-03-22,1.61, 2.07, 0.06, 2.11, 1.53, 6.90, repro,
2009-03-23,1.35, 3.54, -2.71, 2.12, 1.54, 6.97, repro,
2009-03-24,0.85, 4.74, -1.83, 2.11, 1.54, 6.95, repro,
2009-03-25,1.32, 5.59, 0.05, 2.11, 1.53, 6.92, repro,
2009-03-26,0.48, 3.15, 1.54, 2.12, 1.52, 6.90, repro,
2009-03-27,-0.36, 3.34, -1.46, 2.15, 1.54, 6.97, repro,
2009-03-28,1.70, 3.22, -0.83, 2.15, 1.55, 7.03, repro,
2009-03-29,2.75, 2.87, 3.11, 2.16, 1.55, 7.05, repro,
2009-03-30,0.47, 5.28, -3.70, 2.16, 1.55, 7.07, repro,
2009-03-31,1.60, 4.24, -1.41, 2.15, 1.55, 7.03, repro,
2009-04-01,1.78, 3.43, -1.19, 2.14, 1.53, 6.92, repro,
2009-04-02,0.67, 0.56, 0.27, 2.20, 1.58, 7.18, repro,
2009-04-03,0.96, 1.15, -2.23, 2.23, 1.57, 7.21, repro,
2009-04-04,-0.53, 0.71, -9.70, 2.16, 1.55, 7.05, repro,
2009-04-05,-0.76, 1.15, -4.32, 2.18, 1.55, 7.07, repro,
2009-04-06,0.24, 1.82, -9.65, 2.15, 1.53, 6.97, repro,
2009-04-07,-0.48, 2.86, -5.62, 2.17, 1.53, 6.96, repro,
2009-04-08,0.92, 3.40, 2.37, 2.16, 1.54, 7.00, repro,
2009-04-09,0.39, 2.65, -1.43, 2.19, 1.55, 7.13, repro,
2009-04-10,1.04, 2.74, -5.86, 2.18, 1.55, 7.12, repro,
2009-04-11,-0.21, 3.78, -0.04, 2.17, 1.54, 7.00, repro,
2009-04-12,2.64, 4.11, -0.65, 2.17, 1.53, 7.01, repro,
2009-04-13,0.89, 3.43, -4.28, 2.17, 1.54, 6.99, repro,
2009-04-14,3.86, 3.50, -7.87, 2.18, 1.55, 7.07, repro,
2009-04-15,2.90, 2.83, -4.22, 2.18, 1.54, 7.07, repro,
2009-04-16,1.83, 2.77, -4.35, 2.18, 1.55, 7.15, repro,
2009-04-17,0.73, 3.57, -8.55, 2.19, 1.54, 7.11, repro,
2009-04-18,1.22, 4.44, -7.70, 2.17, 1.54, 7.03, repro,
2009-04-19,0.60, 4.56, -4.31, 2.17, 1.53, 7.00, repro,
2009-04-20,2.16, 4.41, -4.35, 2.19, 1.56, 7.14, repro,
2009-04-21,1.91, 3.17, -2.14, 2.18, 1.53, 7.03, repro,
2009-04-22,2.26, 3.66, 3.17, 2.18, 1.53, 7.04, repro,
2009-04-23,0.78, 3.40, -0.21, 2.22, 1.57, 7.15, repro,
2009-04-24,1.26, 3.55, -1.21, 2.22, 1.57, 7.12, repro,
2009-04-25,1.91, 2.95, -7.87, 2.19, 1.53, 7.04, repro,
2009-04-26,0.53, 3.80, -2.16, 2.19, 1.53, 7.08, repro,
2009-04-27,1.37, 3.70, -2.31, 2.20, 1.53, 7.05, repro,
2009-04-28,1.40, 4.18, -2.61, 2.20, 1.53, 7.03, repro,
2009-04-29,1.01, 3.95, -0.43, 2.26, 1.62, 7.37, repro,
2009-04-30,0.60, 3.25, -9.55, 2.21, 1.58, 7.15, repro,
2009-05-01,1.55, 2.63, -5.45, 2.19, 1.55, 7.10, repro,
2009-05-02,0.64, 3.98, -0.81, 2.20, 1.54, 7.12, repro,
2009-05-03,1.85, 4.47, -6.88, 2.21, 1.53, 7.07, repro,
2009-05-04,0.53, 3.69, 1.30, 2.19, 1.55, 7.06, repro,
2009-05-05,0.96, 2.07, 4.47, 2.17, 1.53, 7.00, repro,
2009-05-06,1.51, 2.76, -3.46, 2.23, 1.56, 7.18, repro,
2009-05-07,1.87, 3.49, -3.33, 2.19, 1.54, 7.07, repro,
2009-05-08,1.55, 5.17, -5.61, 2.18, 1.52, 7.00, repro,
2009-05-09,2.12, 5.26, -6.32, 2.17, 1.52, 6.99, repro,
2009-05-10,1.63, 3.81, -3.65, 2.14, 1.52, 6.93, repro,
2009-05-11,0.13, 4.60, -1.97, 2.16, 1.53, 6.97, repro,
2009-05-12,2.48, 4.44, -5.92, 2.20, 1.55, 7.09, repro,
2009-05-13,2.85, 5.33, -3.53, 2.19, 1.54, 7.09, repro,
2009-05-14,3.49, 3.79, 4.31, 2.18, 1.53, 7.06, repro,
2009-05-15,2.61, 4.46, -3.35, 2.16, 1.51, 6.95, repro,
2009-05-16,1.01, 3.82, -6.19, 2.14, 1.52, 6.94, repro,
2009-05-17,-0.86, 4.00, -4.65, 2.16, 1.53, 7.01, repro,
2009-05-18,1.92, 2.94, -1.55, 2.17, 1.53, 7.06, repro,
2009-05-19,2.85, 4.73, 2.90, 2.24, 1.62, 7.33, repro,
2009-05-20,3.31, 4.39, -5.32, 2.16, 1.53, 7.03, repro,
2009-05-21,2.87, 4.12, -6.28, 2.16, 1.52, 6.99, repro,
2009-05-22,2.26, 4.07, -9.63, 2.21, 1.54, 7.04, repro,
2009-05-23,1.58, 4.04, -8.02, 2.17, 1.53, 7.06, repro,
2009-05-24,2.79, 4.33, -7.68, 2.18, 1.53, 7.08, repro,
2009-05-25,3.68, 4.07, -6.47, 2.16, 1.52, 7.00, repro,
2009-05-26,2.69, 4.22, -6.39, 2.16, 1.53, 7.04, repro,
2009-05-27,1.07, 3.86, 1.12, 2.18, 1.53, 7.09, repro,
2009-05-28,1.63, 3.10, -0.49, 2.17, 1.53, 7.06, repro,
2009-05-29,2.28, 2.89, -3.01, 2.19, 1.53, 7.14, repro,
2009-05-30,0.38, 3.92, 1.91, 2.18, 1.53, 7.14, repro,
2009-05-31,2.48, 3.32, -7.11, 2.18, 1.53, 7.14, repro,
2009-06-01,1.88, 3.45, -5.98, 2.16, 1.52, 7.06, repro,
2009-06-02,2.69, 2.67, -4.98, 2.16, 1.51, 7.01, repro,
2009-06-03,1.43, 2.89, -9.59, 2.17, 1.52, 7.06, repro,
2009-06-04,1.91, 4.31, -9.31, 2.19, 1.53, 7.14, repro,
2009-06-05,2.81, 3.79, -2.08, 2.22, 1.55, 7.24, repro,
2009-06-06,2.63, 3.05, -2.58, 2.22, 1.56, 7.24, repro,
2009-06-07,2.39, 2.76, -2.25, 2.15, 1.52, 7.01, repro,
2009-06-08,2.21, 3.11, -1.30, 2.23, 1.56, 7.16, repro,
2009-06-09,2.76, 1.90, -0.34, 2.17, 1.51, 7.00, repro,
2009-06-10,1.78, 2.84, -7.50, 2.17, 1.52, 7.08, repro,
2009-06-11,1.61, 4.03, -2.82, 2.17, 1.52, 7.05, repro,
2009-06-12,1.69, 3.64, -4.45, 2.17, 1.52, 7.07, repro,
2009-06-13,2.40, 3.21, 3.72, 2.17, 1.52, 7.05, repro,
2009-06-14,1.26, 3.04, 0.95, 2.19, 1.57, 7.17, repro,
2009-06-15,1.00, 3.21, -3.56, 2.16, 1.52, 7.02, repro,
2009-06-16,2.22, 3.83, 0.75, 2.21, 1.55, 7.24, repro,
2009-06-17,1.52, 3.10, -2.90, 2.17, 1.52, 7.05, repro,
2009-06-18,2.28, 3.24, -2.99, 2.18, 1.52, 7.04, repro,
2009-06-19,2.02, 2.66, -3.07, 2.19, 1.55, 7.15, repro,
2009-06-20,2.21, 1.52, -1.08, 2.18, 1.54, 7.11, repro,
2009-06-21,3.40, 2.69, 2.01, 2.18, 1.53, 7.12, repro,
2009-06-22,0.09, 3.79, 3.69, 2.21, 1.55, 7.30, repro,
2009-06-23,1.66, 3.93, 0.60, 2.18, 1.53, 7.10, repro,
2009-06-24,2.36, 4.45, -2.52, 2.21, 1.54, 7.14, repro,
2009-06-25,0.41, 3.70, 0.79, 2.19, 1.55, 7.16, repro,
2009-06-26,2.30, 2.72, -6.69, 2.18, 1.56, 7.13, repro,
2009-06-27,1.55, 4.16, -6.33, 2.18, 1.56, 7.20, repro,
2009-06-28,1.18, 5.74, -4.55, 2.23, 1.60, 7.44, repro,
2009-06-29,1.42, 4.79, 2.31, 2.31, 1.61, 7.54, repro,
2009-06-30,3.18, 3.13, -5.60, 2.17, 1.55, 7.09, repro,
2009-07-01,1.46, 3.96, 2.95, 2.17, 1.55, 7.11, repro,
2009-07-02,0.97, 3.03, -0.81, 2.15, 1.53, 6.99, repro,
2009-07-03,0.99, 3.60, 0.45, 2.17, 1.53, 7.09, repro,
2009-07-04,1.92, 4.78, 1.24, 2.17, 1.52, 7.06, repro,
2009-07-05,0.85, 4.30, 2.96, 2.17, 1.52, 7.03, repro,
2009-07-06,2.08, 4.54, -0.67, 2.15, 1.53, 6.98, repro,
2009-07-07,0.94, 3.20, -0.35, 2.15, 1.53, 7.01, repro,
2009-07-08,0.91, 2.55, 2.97, 2.15, 1.52, 6.99, repro,
2009-07-09,0.50, 4.35, 1.18, 2.15, 1.53, 7.03, repro,
2009-07-10,2.50, 3.90, -5.90, 2.18, 1.53, 7.08, repro,
2009-07-11,1.20, 1.81, 1.49, 2.17, 1.54, 7.06, repro,
2009-07-12,1.59, 2.53, -3.34, 2.16, 1.55, 7.08, repro,
2009-07-13,0.46, 2.37, 4.72, 2.13, 1.53, 7.00, repro,
2009-07-14,1.70, 3.53, 0.62, 2.15, 1.54, 7.06, repro,
2009-07-15,1.11, 4.04, 1.60, 2.15, 1.52, 7.02, repro,
2009-07-16,1.17, 3.45, 2.95, 2.15, 1.52, 7.02, repro,
2009-07-17,1.34, 3.30, -3.28, 2.15, 1.53, 7.02, repro,
2009-07-18,1.23, 3.70, -3.96, 2.20, 1.58, 7.27, repro,
2009-07-19,2.06, 4.04, 0.98, 2.13, 1.53, 6.98, repro,
2009-07-20,1.50, 3.64, -0.10, 2.15, 1.53, 7.01, repro,
2009-07-21,0.89, 3.03, -3.23, 2.14, 1.53, 6.99, repro,
2009-07-22,-0.11, 3.06, 5.46, 2.16, 1.53, 7.03, repro,
2009-07-23,2.48, 2.19, 0.64, 2.14, 1.54, 7.02, repro,
2009-07-24,0.30, 2.16, -1.85, 2.17, 1.59, 7.26, repro,
2009-07-25,1.51, 2.39, 1.11, 2.22, 1.56, 7.23, repro,
2009-07-26,1.15, 3.94, 2.20, 2.26, 1.59, 7.44, repro,
2009-07-27,1.02, 3.62, 3.17, 2.15, 1.53, 6.98, repro,
2009-07-28,0.73, 3.74, 5.27, 2.22, 1.59, 7.28, repro,
2009-07-29,1.89, 2.66, -5.10, 2.14, 1.53, 7.02, repro,
2009-07-30,1.78, 3.25, 4.39, 2.21, 1.56, 7.22, repro,
2009-07-31,1.42, 2.42, 0.71, 2.15, 1.55, 7.07, repro,
2009-08-01,2.77, 3.09, 3.23, 2.14, 1.53, 6.98, repro,
2009-08-02,1.83, 2.49, 11.06, 2.15, 1.54, 7.01, repro,
2009-08-03,1.69, 2.78, -5.38, 2.16, 1.54, 7.05, repro,
2009-08-04,1.32, 1.31, 1.55, 2.17, 1.55, 7.09, repro,
2009-08-05,1.40, 1.58, -2.59, 2.20, 1.56, 7.17, repro,
2009-08-06,1.40, 1.96, 0.52, 2.17, 1.55, 7.06, repro,
2009-08-07,0.63, 3.02, 7.65, 2.49, 1.83, 8.54, repro,
2009-08-08,1.27, 2.10, 1.69, 2.18, 1.57, 7.22, repro,
2009-08-09,1.55, 1.95, -0.65, 2.20, 1.60, 7.30, repro,
2009-08-10,1.12, 2.30, 1.37, 2.15, 1.55, 7.06, repro,
2009-08-11,1.43, 2.05, 3.56, 2.14, 1.54, 6.96, repro,
2009-08-12,1.15, 2.82, 9.15, 2.16, 1.54, 7.00, repro,
2009-08-13,0.92, 2.71, 7.28, 2.23, 1.60, 7.24, repro,
2009-08-14,2.22, 2.39, 1.35, 2.19, 1.55, 7.13, repro,
2009-08-15,2.39, 1.44, 4.34, 2.16, 1.54, 7.02, repro,
2009-08-16,1.40, 2.88, 3.31, 2.23, 1.58, 7.19, repro,
2009-08-17,0.54, 3.72, 7.31, 2.21, 1.57, 7.23, repro,
2009-08-18,1.15, 3.26, 14.13, 2.25, 1.59, 7.24, repro,
2009-08-19,1.52, 2.24, 7.59, 2.18, 1.56, 7.09, repro,
2009-08-20,1.85, 2.49, 3.89, 2.21, 1.58, 7.22, repro,
2009-08-21,1.67, 1.43, -1.52, 2.23, 1.60, 7.27, repro,
2009-08-22,0.87, 2.33, 3.37, 2.20, 1.58, 7.11, repro,
2009-08-23,1.06, 2.55, 4.92, 2.20, 1.58, 7.11, repro,
2009-08-24,1.02, 3.57, 8.02, 2.21, 1.58, 7.15, repro,
2009-08-25,1.86, 2.10, 3.13, 2.25, 1.61, 7.32, repro,
2009-08-26,2.11, 1.80, 0.93, 2.27, 1.64, 7.43, repro,
2009-08-27,0.79, 2.81, 4.63, 2.22, 1.59, 7.19, repro,
2009-08-28,2.07, 3.93, -10.79, 2.17, 1.58, 7.13, repro,
2009-08-29,0.35, 2.54, 2.70, 2.16, 1.55, 6.96, repro,
2009-08-30,-0.02, 2.82, 4.51, 2.18, 1.56, 7.04, repro,
2009-08-31,0.14, 1.50, 5.13, 2.18, 1.56, 7.06, repro,
2009-09-01,-0.91, 1.98, 6.64, 2.22, 1.59, 7.20, repro,
2009-09-02,0.14, 2.64, 4.31, 2.17, 1.57, 7.06, repro,
2009-09-03,-0.48, 1.73, 1.48, 2.16, 1.56, 7.05, repro,
2009-09-04,0.68, 1.21, 3.83, 2.17, 1.56, 7.07, repro,
2009-09-05,-1.03, 0.40, 2.73, 2.22, 1.61, 7.33, repro,
2009-09-06,-2.15, 0.47, 14.54, 2.27, 1.65, 7.49, repro,
2009-09-07,-0.67, 1.52, 2.94, 2.18, 1.57, 7.10, repro,
2009-09-08,0.22, 0.37, 6.56, 2.16, 1.54, 7.00, repro,
2009-09-09,-0.92, -0.82, 3.96, 2.17, 1.56, 7.08, repro,
2009-09-10,-0.21, -0.99, 3.11, 2.17, 1.55, 7.06, repro,
2009-09-11,-0.77, -0.71, 4.61, 2.27, 1.61, 7.29, repro,
2009-09-12,-1.35, -0.99, 11.66, 2.16, 1.55, 7.07, repro,
2009-09-13,-0.80, -0.01, 16.70, 2.19, 1.60, 7.26, repro,
2009-09-14,-0.50, -0.35, 7.81, 2.17, 1.55, 7.08, repro,
2009-09-15,-1.19, -1.08, 6.64, 2.16, 1.55, 7.03, repro,
2009-09-16,0.72, 0.80, -0.10, 2.21, 1.58, 7.26, repro,
2009-09-17,-1.19, 0.35, 3.14, 2.24, 1.66, 7.47, repro,
2009-09-18,-1.47, 0.56, -0.98, 2.21, 1.62, 7.39, repro,
2009-09-19,-0.26, -1.40, 14.23, 2.19, 1.57, 7.18, repro,
2009-09-20,0.44, -2.37, -0.03, 2.17, 1.55, 7.09, repro,
2009-09-21,-0.54, -0.90, 2.38, 2.17, 1.57, 7.16, repro,
2009-09-22,0.35, -2.65, -1.76, 2.20, 1.59, 7.23, repro,
2009-09-23,0.49, 0.02, 3.25, 2.19, 1.60, 7.19, repro,
2009-09-24,-1.32, -0.96, 6.84, 2.16, 1.55, 7.05, repro,
2009-09-25,0.36, -1.18, 8.82, 2.20, 1.58, 7.17, repro,
2009-09-26,-0.90, -0.28, 12.33, 2.17, 1.56, 7.11, repro,
2009-09-27,-0.46, 0.44, 1.24, 2.17, 1.56, 7.14, repro,
2009-09-28,-0.66, -0.77, -0.97, 2.22, 1.58, 7.23, repro,
2009-09-29,-0.32, -0.33, 11.33, 2.23, 1.63, 7.38, repro,
2009-09-30,0.79, -0.08, 7.36, 2.17, 1.57, 7.15, repro,
2009-10-01,-0.70, -1.33, 3.15, 2.24, 1.64, 7.36, repro,
2009-10-02,-1.16, -0.72, 5.46, 2.18, 1.57, 7.14, repro,
2009-10-03,-0.39, 0.06, -1.15, 2.16, 1.56, 7.12, repro,
2009-10-04,1.45, 0.40, 5.21, 2.16, 1.56, 7.12, repro,
2009-10-05,-0.53, 0.78, 7.19, 2.16, 1.56, 7.12, repro,
2009-10-06,1.03, -0.35, 5.66, 2.17, 1.56, 7.11, repro,
2009-10-07,-0.11, 0.10, 11.84, 2.15, 1.56, 7.06, repro,
2009-10-08,-0.96, 1.77, 8.65, 2.26, 1.61, 7.27, repro,
2009-10-09,-0.15, 0.93, -5.34, 2.17, 1.56, 7.12, repro,
2009-10-10,-1.64, 1.23, 3.09, 2.16, 1.57, 7.19, repro,
2009-10-11,1.32, 0.55, 7.24, 2.16, 1.56, 7.07, repro,
2009-10-12,0.49, 0.31, 5.14, 2.17, 1.56, 7.10, repro,
2009-10-13,-0.01, 0.01, 12.47, 2.17, 1.59, 7.21, repro,
2009-10-14,1.46, -0.58, 13.01, 2.19, 1.57, 7.18, repro,
2009-10-15,0.45, 0.73, -0.55, 2.20, 1.60, 7.30, repro,
2009-10-16,0.30, 0.67, 0.23, 2.21, 1.62, 7.41, repro,
2009-10-17,-0.97, -0.83, 7.91, 2.22, 1.63, 7.32, repro,
2009-10-18,-0.44, -0.08, 10.28, 2.24, 1.64, 7.54, repro,
2009-10-19,-1.18, 0.97, 5.95, 2.19, 1.61, 7.27, repro,
2009-10-20,-0.41, 0.51, 0.10, 2.19, 1.63, 7.30, repro,
2009-10-21,0.57, 0.38, 3.15, 2.19, 1.62, 7.25, repro,
2009-10-22,0.30, 0.66, 4.16, 2.21, 1.63, 7.30, repro,
2009-10-23,0.47, -0.13, 8.54, 2.19, 1.62, 7.24, repro,
2009-10-24,-0.42, 1.93, 9.04, 2.20, 1.63, 7.28, repro,
2009-10-25,0.69, 0.80, -0.53, 2.24, 1.63, 7.35, repro,
2009-10-26,-0.41, 0.55, 5.18, 2.23, 1.65, 7.44, repro,